Dauntless Aviation
Airports Europe United Kingdom
EGPY

Dounreay Thurso

UNITED KINGDOM

Airport Info
Suggest Updated Information for this Airport

Location

Latitude / Longitude: 58°35'3"N / 3°43'31"W
  58°35.052'N / 3°43.518'W
  58.5842 / -3.7253

Runway Information

Runway 04 /22

Dimensions: 3300 x 100 ft.
Surface: U
 
Runway 04
Runway 22
Latitude: 58.579444 58.586944
Longitude: -3.731389 -3.721667
Elevation: 130 ft. 130 ft.
Runway true heading: 33.4 213.4
 
Satellite photo at:
Airport distance calculator
From:
Weather Reports

METAR

EGPC
22.2nm E
EGPC 072120Z AUTO 22005KT 200V260 9999 FEW034/// 05/03 Q0965
EGPA
34.2nm NE
EGPA 072120Z AUTO 21007KT 8000 FEW006/// SCT031/// BKN037/// 06/05 Q0964

TAF

EGPC
22.2nm E
TAF EGPC 071953Z 0721/0806 22006KT 9999 SCT025 PROB30 TEMPO 0721/0806 8000 -SHRA PROB30 TEMPO 0800/0806 BKN012
EGPA
34.2nm NE
TAF EGPA 071953Z 0721/0806 24008KT 9999 FEW015 SCT025 PROB30 TEMPO 0721/0806 6000 SHRA BKN012 PROB30 TEMPO 0721/0722 23018G28KT
Safelog

 

Dauntless Aviation

© 2007-2016 Dauntless Aviation, all rights reserved
Information provided via PilotNav comes from a variety of official and unofficial data sources. As errors are possible, do not use PilotNav for primary flight planning purposes. Verify any information that you receive via PilotNav with current and canonical charts and other official documents. The material in this database is subject to database copyrights held by Dauntless Aviation and may not be copied without the express permission of Dauntless Aviation - licenses for use of part of all of this data are available for purchase; enquire via the Dauntless Aviation helpdesk. A number of mechanisms and markers exist in the database to protect against and identify infringement / copyright. Automated queries against this website are stictly prohibited, and all activity is logged and analyzed.